Back to catalog

PSLV DEB

AliveSSO
NORAD 27133·DEBRIS·🇮🇳 India

Launched Oct 22, 2001 from Satish Dhawan Space Centre

Loading…

Next Passes (next 24 hours)

TLE

FreshSource: Space-Track

Epoch: Sep 14, 2026, 12:53 UTC

1 27133U 01049CD  26257.53718083  .00000702  00000-0  12392-3 0  9996
2 27133  97.7547 186.2669 0039896 310.0627  49.7084 14.69898102319451

Track PSLV DEB in real time with AllMySat

Download on the App Store